Погода в Норильске

Погода в Норильске : погода сейчас, прогноз погоды и архив. Всё, что Вы хотите узнать о погоде в Норильске!

Поиск расширенной информации на нашем сайте:

Другие новости

Новости СМИ2

Главная страница сайта

Новости сайта

03.07.2017

Напоминаем, что на нашем специализированном сайте Метеоцентр.Азия вы можете получить высокодетализированные автоматические прогнозы погоды по пунктам России, СНГ и мира в авиационном формате (включающие направление и скорость ветра, видимость, явления погоды, количество и форму облачности, нижнюю и верхнюю границу облачности).

Рекомендуем: Рамблер топ100 строительство и ремонт москва.

Погода в Норильске - сегодня

Время (UTC), дата Ветер
(°,м/с) 
Видим.   Явления Облачность Т
(°С)
Тd
(°С)
f(%) Тe
(°С)
Pmin
(гПа)
dP
(гПа)
Po
(мм)
O2
(г/м3)
Тmin Tmax R s Состояние
почвы
06 18.07.17 320 (СЗ) 20000 м    3/0 верхняя 
[Ci fib]
+24.4 +12.8 48 +29  1015.8  -0.3  756  277           
09 18.07.17 330 (СЗ) 6-10{10}  20000 м    3/0 верхняя 
[Ci fib]
+24.9 +12.2 45 +29  1015.7  -0.1  756  277           
12 18.07.17 330 (СЗ) 5{11}  20000 м    3/0 верхняя 
[Ci fib]
+24.4 +12.4 47 +29  1015.9  0.2  756  277    +25.1       
15 18.07.17 310 (СЗ) 20000 м    ясно 
+23 +10.3 45 +24  1015.7  -0.3  756  279           
18 18.07.17 310 (СЗ) 20000 м    ясно 
+19.7 +14.2 71 +28  1015.7  756  281           
21 18.07.17 270 (З) 20000 м    3/0 верхняя 
[Ci fib]
+17.8 +13.6 76 +24  1016  0.3  756  283           
00 19.07.17 270 (З) 20000 м    3/0 верхняя 
[Ci fib]
+19.7 +14.8 73 +29  1016.2  0.2  756  281  +18.1         
03 19.07.17 300 (СЗ) 20000 м    4/0 верхняя 
[Ci fib]
+22.5 +15.7 65 +32  1016.1  -0.1  756  278           
06 19.07.17 010 (С) 20000 м    3/1 600 м верхняя 
[Cu hum|Ci fib]
+26.1 +14.2 48 +33  1015  -1  756  275           
09 19.07.17 010 (С) 7{10}  20000 м    3/3 600 м 
[Cu hum]
+26.6 +13.4 44 +32  1014.9  756  275           
12 19.07.17 350 (С) 6{11}  20000 м    1/1 600 м 
[Cu hum]
+25 +14 50 +32  1015.2  0.2  756  276    +26.6       
15 19.07.17 350 (С) 3{10}  20000 м    3/0 верхняя 
[Ci fib]
+22.6 +12.4 52 +27  1015.3  756  279           
18 19.07.17 340 (С) 20000 м    4/0 верхняя 
[Ci fib]
+18.3 +12 67 +23  1015.7  0.4  756  283           
21 19.07.17 290 (З) 20000 м    4/0 верхняя 
[Ci fib]
+16.7 +12.8 78 +22  1015.8  756  285           
00 20.07.17 290 (З) 20000 м    1/0 верхняя 
[Ci fib]
+15.6 +10.9 74 +17  1015.9  0.1  756  286  +15.5         
03 20.07.17 300 (СЗ) 6{11}  20000 м    1/0 верхняя 
[Ci fib]
+16.6 +11.2 70 +19  1015.5  -0.4  756  285           
06 20.07.17 280 (З) 20000 м    ясно 
+21.8 +12.1 54 +26  1014.9  -0.5  755  280           
09 20.07.17 300 (СЗ) 20000 м    3/3 2000 м средняя 
[Ac trans]
+23.9 +12.6 49 +29  1014.8  755  278           
12 20.07.17 310 (СЗ) 20000 м    3/3 2000 м средняя 
[Ac trans]
+24.2 +13 50 +29  1014.4  -0.4  755  277    +24.9       
15 20.07.17 270 (З) 20000 м    4/0 верхняя 
[Ci fib]
+22.1 +12.4 54 +26  1014.8  0.3  755  279           
18 20.07.17 300 (СЗ) 20000 м    4/0 верхняя 
[Ci fib]
+18.8 +11.8 64 +23  1015.5  0.7  756  283           
21 20.07.17 150 (ЮВ) 20000 м    6/0 верхняя 
[Ci fib]
+15.6 +13.1 85 +22  1016.7  1.1  757  286           
00 21.07.17 070 (В) 20000 м    ясно 
+17.5 +14 80 +26  1017.4  0.7  757  284  +14.5         
03 21.07.17 300 (СЗ) 20000 м    3/0 верхняя 
[Ci fib]
+21.5 +13 58 +27  1017.8  0.5  758  280           
06 21.07.17 010 (С) 10 км    1/0 верхняя 
[Ci fib]
+24.8 +12.7 47 +30  1017.7  758  277           
Время (UTC), дата Ветер
(°,м/с) 
Видим.   Явления Облачность Т
(°С)
Тd
(°С)
f(%) Тe
(°С)
Pmin
(гПа)
dP
(гПа)
Po
(мм)
O2
(г/м3)
Тmin Tmax R s Состояние
почвы

Для получения пояснительной информации подведите курсор к названию столбца.

ПОГОДА в Норильске - архив

Всё, что Вы хотите узнать о погоде в Норильске - удобно и подробно!

Выберите нужную дату (начиная с 1 января 2015* года) и нажмите кнопку "Найти".
Будут отображены архивные сводки погоды по пункту Норильск, начиная с указанной даты.


Отображать данные в формате CSV (для использования в таблицах Excel)


Внимание! Наш архив погоды предназначен исключительно для личного некоммерческого использования в познавательных целях. Если Вам необходимы официальные справки о состоянии погоды (для производственных, юридических, коммерческих и т.п. целей), обращайтесь в органы Росгидромета.

*Примечание: данная дата относится к архиву по метеостанциям СССР (Россия, СНГ, Балтия).
Архив по метеостанциям Зарубежной Европы и Азии (кроме Китая) хранится 10 дней, по другим регионам земного шара (Китай, Африка, Америка, Австралия, Океания) - 1 день.

Норильск - район местоположения метеостанции


Название, широта, долгота, высота метеостанции:
Норильск (Алыкель) 69.3°ш. 87.2°д. 175 м над ур. моря [Российская Федерация]

Дополнительная информация

В oтличие oт бoльшинства пoгoдных сайтoв мы публикуем пoдрoбную метеoинфoрмацию в детальнoм прoфессиoнальнoм фoрмате.

Характеристики температуры и влажнoсти вoздуха измеряются на высoте 2 м в тени вдали oт зданий и деревьев.
Скoрoсть ветра измеряется на высoте 10 м (на урoвне рoста челoвека скoрoсть ветра ниже в 1.5-2 раза). Если метеoстанция нахoдится в гoрoде или в лесу, тo скoрoсть ветра занижена на 2-4 м/с пo сравнению с oткрытым местoм. Скoрoсть ветра над акватoриями крупных рек и oзёр, а также на вершинах хoлмoв на 2-5 м/с выше, чем в oбычных услoвиях.
Атмoсфернoе давление в разных тoчках местнoсти мoжет значительнo oтличаться oт давления на метеoстанции, в зависимoсти oт услoвий рельефа (при пoдъёме на 10 м давление пoнижается примернo на 1 мм рт.ст.).